Location: ????????
(55.0808°N, 38.5463°E)
Time: 04:34:45
(UTC+00:00)

Intercosmos 25 Rocket - Pass Details

Date: 14 April 2024
Orbit: 434 x 2971 km, 82.6° (Epoch: 23 May)

Event Time Altitude Azimuth Distance (km) Brightness Sun altitude
Rises 01:13:10 0° 345° (NNW) 2,433 6.9 -10.0°
Reaches altitude 10° 01:15:04 10° 341° (NNW) 1,580 5.8 -9.8°
Maximum altitude 01:18:14 59° 262° (W) 583 3.1 -9.4°
Drops below altitude 10° 01:22:16 10° 182° (S) 1,998 5.9 -8.9°
Sets 01:24:56 0° 179° (S) 3,176 6.9 -8.6°
